EN

Hourly Weather Alvarado

Today, 19 January, Tuesday

Time Temperature Precipitation Wind Pressure Humidity
00:00 +20°C° 0 mm 2 mps 763 mmHg 94%
01:00 +20°C° 0 mm 2 mps 762 mmHg 95%
02:00 +20°C° 0 mm 1 mps 762 mmHg 95%
03:00 +20°C° 0 mm 1 mps 762 mmHg 96%
04:00 +20°C° 0 mm 1 mps 762 mmHg 96%
05:00 +20°C° 0 mm 1 mps 762 mmHg 96%
06:00 +19°C° 0 mm 1 mps 762 mmHg 96%
07:00 +21°C° 0 mm 1 mps 762 mmHg 90%
08:00 +22°C° 0 mm 1 mps 763 mmHg 85%
09:00 +24°C° 0 mm 1 mps 763 mmHg 79%
10:00 +25°C° 0 mm 1 mps 763 mmHg 72%
11:00 +27°C° 0 mm 2 mps 763 mmHg 65%
12:00 +28°C° 0 mm 2 mps 763 mmHg 58%
13:00 +28°C° 0 mm 2 mps 762 mmHg 60%
14:00 +28°C° 0 mm 3 mps 761 mmHg 62%
15:00 +28°C° 0 mm 4 mps 761 mmHg 64%
16:00 +27°C° 0 mm 3 mps 761 mmHg 71%
17:00 +25°C° 0 mm 3 mps 761 mmHg 77%
18:00 +24°C° 0 mm 3 mps 762 mmHg 84%
19:00 +24°C° 0 mm 3 mps 763 mmHg 87%
20:00 +22°C° 0 mm 3 mps 763 mmHg 90%
21:00 +22°C° 0 mm 3 mps 764 mmHg 92%
22:00 +22°C° 0.6 mm 3 mps 764 mmHg 92%
23:00 +22°C° 0.6 mm 3 mps 764 mmHg 93%

Tomorrow, 20 January, Wednesday

Time Temperature Precipitation Wind Pressure Humidity
00:00 +22°C° 0.6 mm 3 mps 764 mmHg 93%
01:00 +22°C° 1.5 mm 3 mps 764 mmHg 94%
02:00 +22°C° 1.5 mm 3 mps 764 mmHg 95%
03:00 +22°C° 1.5 mm 3 mps 763 mmHg 97%
04:00 +22°C° 0.3 mm 3 mps 764 mmHg 97%
05:00 +22°C° 0.3 mm 3 mps 764 mmHg 97%
06:00 +22°C° 0.3 mm 3 mps 764 mmHg 97%
07:00 +24°C° 0.7 mm 3 mps 764 mmHg 96%
08:00 +24°C° 0.7 mm 3 mps 764 mmHg 95%
09:00 +24°C° 0.7 mm 2 mps 765 mmHg 94%
10:00 +25°C° 0.7 mm 2 mps 765 mmHg 89%
11:00 +26°C° 0.7 mm 2 mps 764 mmHg 85%
12:00 +28°C° 0.7 mm 2 mps 764 mmHg 80%
13:00 +28°C° 0.8 mm 3 mps 764 mmHg 81%
14:00 +28°C° 0.8 mm 4 mps 763 mmHg 81%
15:00 +28°C° 0.8 mm 5 mps 762 mmHg 81%
16:00 +27°C° 0.3 mm 5 mps 762 mmHg 84%
17:00 +26°C° 0.3 mm 5 mps 762 mmHg 87%
18:00 +25°C° 0.3 mm 5 mps 762 mmHg 90%
19:00 +25°C° 0 mm 5 mps 763 mmHg 91%
20:00 +23°C° 0 mm 5 mps 764 mmHg 92%
21:00 +23°C° 0 mm 5 mps 764 mmHg 93%
22:00 +23°C° 0 mm 4 mps 764 mmHg 93%
23:00 +23°C° 0 mm 4 mps 764 mmHg 93%

Day after tomorrow, 21 January, Thursday

Time Temperature Precipitation Wind Pressure Humidity
00:00 +24°C° 0 mm 3 mps 764 mmHg 94%
01:00 +22°C° 0.1 mm 3 mps 764 mmHg 94%
02:00 +22°C° 0.1 mm 3 mps 764 mmHg 95%
03:00 +22°C° 0.1 mm 3 mps 764 mmHg 95%
04:00 +22°C° 0.2 mm 3 mps 764 mmHg 96%
05:00 +22°C° 0.2 mm 3 mps 764 mmHg 96%
06:00 +21°C° 0.2 mm 3 mps 764 mmHg 97%
07:00 +22°C° 0.2 mm 3 mps 764 mmHg 94%
08:00 +24°C° 0.2 mm 3 mps 764 mmHg 91%
09:00 +25°C° 0.2 mm 2 mps 764 mmHg 88%
10:00 +26°C° 0.1 mm 2 mps 764 mmHg 82%
11:00 +28°C° 0.1 mm 2 mps 763 mmHg 76%
12:00 +29°C° 0.1 mm 2 mps 763 mmHg 69%
13:00 +29°C° 0.1 mm 3 mps 762 mmHg 70%
14:00 +29°C° 0.1 mm 3 mps 761 mmHg 70%
15:00 +29°C° 0.1 mm 4 mps 760 mmHg 70%
16:00 +28°C° 0 mm 4 mps 760 mmHg 76%
17:00 +27°C° 0 mm 4 mps 760 mmHg 81%
18:00 +25°C° 0 mm 4 mps 760 mmHg 86%
19:00 +25°C° 0 mm 3 mps 760 mmHg 89%
20:00 +24°C° 0 mm 3 mps 760 mmHg 91%
21:00 +24°C° 0 mm 3 mps 761 mmHg 94%
22:00 +22°C° 0 mm 3 mps 761 mmHg 95%
23:00 +23°C° 0 mm 2 mps 760 mmHg 95%

22 January, Friday

Time Temperature Precipitation Wind Pressure Humidity
00:00 +23°C° 0 mm 2 mps 760 mmHg 96%
01:00 +23°C° 0 mm 2 mps 760 mmHg 96%
02:00 +22°C° 0 mm 1 mps 759 mmHg 96%
03:00 +22°C° 0 mm 1 mps 759 mmHg 96%
04:00 +22°C° 0 mm 1 mps 759 mmHg 96%
05:00 +22°C° 0 mm 1 mps 759 mmHg 97%
06:00 +22°C° 0 mm 1 mps 759 mmHg 97%
07:00 +23°C° 0 mm 1 mps 760 mmHg 93%
08:00 +24°C° 0 mm 1 mps 760 mmHg 90%
09:00 +25°C° 0 mm 2 mps 760 mmHg 86%
10:00 +26°C° 0 mm 1 mps 760 mmHg 79%
11:00 +28°C° 0 mm 1 mps 760 mmHg 73%
12:00 +30°C° 0 mm 1 mps 759 mmHg 66%
13:00 +30°C° 0 mm 2 mps 758 mmHg 66%
14:00 +30°C° 0 mm 2 mps 758 mmHg 66%
15:00 +30°C° 0 mm 3 mps 757 mmHg 66%
16:00 +28°C° 0 mm 3 mps 757 mmHg 73%
17:00 +27°C° 0 mm 3 mps 757 mmHg 80%
18:00 +25°C° 0 mm 3 mps 757 mmHg 87%
19:00 +25°C° 0 mm 2 mps 758 mmHg 90%
20:00 +24°C° 0 mm 2 mps 759 mmHg 92%
21:00 +24°C° 0 mm 2 mps 759 mmHg 95%
22:00 +23°C° 0 mm 2 mps 759 mmHg 95%
23:00 +23°C° 0 mm 1 mps 759 mmHg 96%

23 January, Saturday

Time Temperature Precipitation Wind Pressure Humidity
00:00 +23°C° 0 mm 1 mps 759 mmHg 96%
01:00 +23°C° 0 mm 1 mps 759 mmHg 96%
02:00 +21°C° 0 mm 0 mps 759 mmHg 97%
03:00 +21°C° 0 mm 0 mps 759 mmHg 97%
04:00 +20°C° 0 mm 0 mps 759 mmHg 97%
05:00 +22°C° 0 mm 1 mps 760 mmHg 97%
06:00 +22°C° 0 mm 1 mps 760 mmHg 98%
07:00 +23°C° 0 mm 1 mps 760 mmHg 94%
08:00 +24°C° 0 mm 1 mps 761 mmHg 91%
09:00 +25°C° 0 mm 1 mps 761 mmHg 87%
10:00 +26°C° 0 mm 1 mps 761 mmHg 83%
11:00 +27°C° 0 mm 1 mps 761 mmHg 79%
12:00 +28°C° 0 mm 2 mps 760 mmHg 75%
13:00 +29°C° 0 mm 2 mps 760 mmHg 73%
14:00 +29°C° 0 mm 2 mps 759 mmHg 70%
15:00 +30°C° 0 mm 2 mps 758 mmHg 67%
16:00 +28°C° 0 mm 2 mps 759 mmHg 74%
17:00 +27°C° 0 mm 2 mps 759 mmHg 81%
18:00 +25°C° 0 mm 2 mps 759 mmHg 87%
19:00 +25°C° 0 mm 2 mps 759 mmHg 90%
20:00 +24°C° 0 mm 2 mps 760 mmHg 93%
21:00 +23°C° 0 mm 2 mps 761 mmHg 95%
22:00 +23°C° 0 mm 2 mps 761 mmHg 96%
23:00 +23°C° 0 mm 1 mps 761 mmHg 96%

24 January, Sunday

Time Temperature Precipitation Wind Pressure Humidity
00:00 +23°C° 0 mm 1 mps 760 mmHg 97%
01:00 +23°C° 0 mm 1 mps 760 mmHg 97%
02:00 +23°C° 0 mm 1 mps 760 mmHg 97%
03:00 +20°C° 0 mm 0 mps 760 mmHg 97%
04:00 +22°C° 0 mm 1 mps 760 mmHg 97%
05:00 +22°C° 0 mm 1 mps 760 mmHg 97%
06:00 +22°C° 0 mm 1 mps 760 mmHg 98%
07:00 +23°C° 0 mm 1 mps 760 mmHg 94%
08:00 +24°C° 0 mm 1 mps 760 mmHg 90%
09:00 +25°C° 0 mm 1 mps 761 mmHg 86%
10:00 +27°C° 0 mm 1 mps 760 mmHg 77%
11:00 +29°C° 0 mm 1 mps 760 mmHg 69%
12:00 +31°C° 0 mm 1 mps 760 mmHg 61%
13:00 +31°C° 0 mm 1 mps 759 mmHg 61%
14:00 +31°C° 0 mm 2 mps 758 mmHg 60%
15:00 +31°C° 0 mm 3 mps 758 mmHg 60%
16:00 +29°C° 0 mm 3 mps 758 mmHg 69%
17:00 +28°C° 0 mm 3 mps 758 mmHg 77%
18:00 +26°C° 0 mm 3 mps 758 mmHg 86%
19:00 +25°C° 0 mm 3 mps 758 mmHg 89%
20:00 +24°C° 0 mm 3 mps 759 mmHg 92%
21:00 +24°C° 0 mm 3 mps 759 mmHg 95%
22:00 +24°C° 0 mm 3 mps 759 mmHg 95%
23:00 +23°C° 0 mm 2 mps 759 mmHg 96%
Show more